XSR346 KJAX-MBPV

Flight info

Callsign XSR346
Flight time 1h 52m
Altitude 45000
Route EXBOX2 EXBOX DCT PRMUS DCT DEBRL Q97 TOVAR DCT MRLIN BR54V CAREY BR57V ZQA A555 DUKKY BR2L PVN
Aircraft E55P/M-SBDFGHJ2RWY/LB2

Departure

Time 2026-04-23 19:58
Airport Jacksonville International Airport (KJAX)

Arrival

Time 2026-04-23 21:50
Airport Providenciales International Airport (MBPV)
Time Latitude Longitude Altitude Speed Heading
2026-04-23 19:48 30.49620 -81.67814 28 ft 0 kts
2026-04-23 19:53 30.49627 -81.67813 28 ft 6 kts
2026-04-23 19:53 30.49654 -81.67870 28 ft 10 kts 281°
2026-04-23 19:53 30.49688 -81.67917 29 ft 9 kts
2026-04-23 19:54 30.49779 -81.67897 30 ft 17 kts 10°
2026-04-23 19:54 30.49899 -81.67922 30 ft 18 kts 341°
2026-04-23 19:54 30.50009 -81.67966 30 ft 15 kts 340°
2026-04-23 19:54 30.50041 -81.68055 30 ft 17 kts 251°
2026-04-23 19:55 30.49993 -81.68213 31 ft 23 kts 250°
2026-04-23 19:55 30.49936 -81.68399 31 ft 26 kts 250°
2026-04-23 19:55 30.49873 -81.68605 31 ft 28 kts 250°
2026-04-23 19:55 30.49808 -81.68817 32 ft 29 kts 250°
2026-04-23 19:56 30.49739 -81.69042 32 ft 30 kts 250°
2026-04-23 19:56 30.49668 -81.69273 32 ft 30 kts 250°
2026-04-23 19:56 30.49601 -81.69495 32 ft 28 kts 251°
2026-04-23 19:56 30.49537 -81.69705 32 ft 27 kts 251°
2026-04-23 19:57 30.49487 -81.69866 32 ft 19 kts 250°
2026-04-23 19:57 30.49552 -81.69953 32 ft 16 kts 340°
2026-04-23 19:57 30.49639 -81.69937 32 ft 13 kts 62°
2026-04-23 19:57 30.49759 -81.69548 32 ft 103 kts 70°
2026-04-23 19:58 30.50081 -81.68499 429 ft 155 kts 72°
2026-04-23 19:58 30.50512 -81.67231 1422 ft 189 kts 70°
2026-04-23 19:58 30.51020 -81.65714 2749 ft 210 kts 72°
2026-04-23 19:58 30.51320 -81.64033 4011 ft 226 kts 89°
2026-04-23 19:59 30.51018 -81.62182 5020 ft 242 kts 116°
2026-04-23 19:59 30.50090 -81.60623 6542 ft 225 kts 133°
2026-04-23 19:59 30.49016 -81.59266 7422 ft 247 kts 137°
2026-04-23 19:59 30.47662 -81.57925 8234 ft 262 kts 144°
2026-04-23 20:00 30.46164 -81.56660 9246 ft 271 kts 145°
2026-04-23 20:00 30.44645 -81.55325 10263 ft 277 kts 143°
2026-04-23 20:00 30.43103 -81.53919 11191 ft 285 kts 143°
2026-04-23 20:00 30.41522 -81.52490 12162 ft 292 kts 143°
2026-04-23 20:01 30.39885 -81.51038 13106 ft 300 kts 145°
2026-04-23 20:01 30.38074 -81.49792 14020 ft 307 kts 154°
2026-04-23 20:01 30.36168 -81.48700 14980 ft 312 kts 154°
2026-04-23 20:01 30.34242 -81.47478 15931 ft 319 kts 150°
2026-04-23 20:02 30.32323 -81.46150 16931 ft 325 kts 150°
2026-04-23 20:02 30.30352 -81.44824 17858 ft 331 kts 152°
2026-04-23 20:02 30.28329 -81.43509 18733 ft 336 kts 152°
2026-04-23 20:02 30.26282 -81.42167 19547 ft 340 kts 151°
2026-04-23 20:03 30.24218 -81.40795 20348 ft 345 kts 151°
2026-04-23 20:03 30.22151 -81.39429 21111 ft 349 kts 152°
2026-04-23 20:03 30.20026 -81.38033 21858 ft 354 kts 152°
2026-04-23 20:03 30.17872 -81.36615 22600 ft 358 kts 152°
2026-04-23 20:04 30.15696 -81.35179 23338 ft 362 kts 152°
2026-04-23 20:04 30.13498 -81.33731 23967 ft 366 kts 152°
2026-04-23 20:04 30.11270 -81.32267 24531 ft 370 kts 152°
2026-04-23 20:04 30.09020 -81.30789 25107 ft 372 kts 152°
2026-04-23 20:05 30.06774 -81.29311 25794 ft 371 kts 152°
2026-04-23 20:05 30.04539 -81.27842 26472 ft 370 kts 152°
2026-04-23 20:05 30.02336 -81.26396 27136 ft 368 kts 152°
2026-04-23 20:05 30.00115 -81.24939 27793 ft 367 kts 152°
2026-04-23 20:06 29.97897 -81.23485 28447 ft 366 kts 152°
2026-04-23 20:06 29.95684 -81.22034 29090 ft 365 kts 152°
2026-04-23 20:06 29.93480 -81.20590 29719 ft 364 kts 152°
2026-04-23 20:06 29.91283 -81.19151 30313 ft 363 kts 152°
2026-04-23 20:07 29.89085 -81.17713 30821 ft 363 kts 152°
2026-04-23 20:07 29.86938 -81.16192 31312 ft 363 kts 148°
2026-04-23 20:07 29.84823 -81.14606 31794 ft 361 kts 154°
2026-04-23 20:07 29.82576 -81.13434 32268 ft 358 kts 163°
2026-04-23 20:08 29.80186 -81.12674 32748 ft 355 kts 172°
2026-04-23 20:08 29.77743 -81.12358 33223 ft 352 kts 181°
2026-04-23 20:08 29.75307 -81.12399 33685 ft 350 kts 184°
2026-04-23 20:08 29.72872 -81.12450 34143 ft 350 kts 184°
2026-04-23 20:09 29.70445 -81.12495 34539 ft 349 kts 184°
2026-04-23 20:09 29.68018 -81.12551 34924 ft 348 kts 185°
2026-04-23 20:09 29.65601 -81.12609 35313 ft 347 kts 184°
2026-04-23 20:09 29.63188 -81.12664 35692 ft 346 kts 184°
2026-04-23 20:10 29.61627 -81.12698 35936 ft 346 kts 184°
2026-04-23 20:10 29.58411 -81.12770 36432 ft 345 kts 185°
2026-04-23 20:10 29.56015 -81.12823 36800 ft 344 kts 185°
2026-04-23 20:10 29.53625 -81.12878 37160 ft 343 kts 185°
2026-04-23 20:11 29.51237 -81.12931 37519 ft 343 kts 185°
2026-04-23 20:11 29.48859 -81.12984 37877 ft 342 kts 184°
2026-04-23 20:11 29.46484 -81.13037 38237 ft 341 kts 185°
2026-04-23 20:11 29.44115 -81.13091 38578 ft 340 kts 184°
2026-04-23 20:12 29.42347 -81.13130 38825 ft 340 kts 184°
2026-04-23 20:12 29.39983 -81.13183 39080 ft 340 kts 185°
2026-04-23 20:12 29.37618 -81.13236 39318 ft 340 kts 185°
2026-04-23 20:12 29.35254 -81.13289 39568 ft 340 kts 185°
2026-04-23 20:13 29.32887 -81.13342 39819 ft 340 kts 185°
2026-04-23 20:13 29.30515 -81.13225 40067 ft 343 kts 176°
2026-04-23 20:13 29.28174 -81.12675 40298 ft 347 kts 167°
2026-04-23 20:13 29.25891 -81.11729 40521 ft 350 kts 162°
2026-04-23 20:14 29.23620 -81.10721 40752 ft 350 kts 163°
2026-04-23 20:14 29.21372 -81.09740 40977 ft 351 kts 163°
2026-04-23 20:14 29.19095 -81.08734 41204 ft 351 kts 163°
2026-04-23 20:14 29.16820 -81.07724 41425 ft 351 kts 163°
2026-04-23 20:15 29.14542 -81.06718 41645 ft 351 kts 163°
2026-04-23 20:15 29.12261 -81.05713 41861 ft 351 kts 163°
2026-04-23 20:15 29.09977 -81.04707 42073 ft 352 kts 163°
2026-04-23 20:15 29.07697 -81.03701 42283 ft 352 kts 163°
2026-04-23 20:16 29.05411 -81.02693 42533 ft 352 kts 163°
2026-04-23 20:16 29.03126 -81.01687 42769 ft 352 kts 164°
2026-04-23 20:16 29.00870 -81.00694 42997 ft 353 kts 164°
2026-04-23 20:16 28.98580 -80.99687 43231 ft 353 kts 164°
2026-04-23 20:17 28.96289 -80.98679 43456 ft 353 kts 164°
2026-04-23 20:17 28.93999 -80.97672 43680 ft 353 kts 164°
2026-04-23 20:17 28.91705 -80.96665 43895 ft 353 kts 164°
2026-04-23 20:17 28.89410 -80.95657 44122 ft 353 kts 164°
2026-04-23 20:18 28.87123 -80.94653 44338 ft 353 kts 164°
2026-04-23 20:18 28.84822 -80.93643 44556 ft 353 kts 164°
2026-04-23 20:18 28.82558 -80.92651 44761 ft 354 kts 165°
2026-04-23 20:18 28.80263 -80.91645 44931 ft 353 kts 165°
2026-04-23 20:19 28.77968 -80.90639 45089 ft 354 kts 165°
2026-04-23 20:19 28.73302 -80.88600 45091 ft 365 kts 165°
2026-04-23 20:20 28.68490 -80.86520 45105 ft 373 kts 167°
2026-04-23 20:20 28.63533 -80.84631 45126 ft 384 kts 167°
2026-04-23 20:21 28.58404 -80.82656 45123 ft 394 kts 167°
2026-04-23 20:21 28.53141 -80.80642 45126 ft 404 kts 167°
2026-04-23 20:22 28.47755 -80.78578 45130 ft 413 kts 166°
2026-04-23 20:22 28.42286 -80.76487 45125 ft 422 kts 166°
2026-04-23 20:23 28.37251 -80.74563 45126 ft 429 kts 166°
2026-04-23 20:23 28.31539 -80.72383 45083 ft 437 kts 166°
2026-04-23 20:24 28.25724 -80.70166 45082 ft 443 kts 166°
2026-04-23 20:24 28.19887 -80.67943 45076 ft 448 kts 166°
2026-04-23 20:25 28.13955 -80.65687 45100 ft 452 kts 166°
2026-04-23 20:25 28.07972 -80.63414 45100 ft 455 kts 166°
2026-04-23 20:26 28.01943 -80.61127 45102 ft 459 kts 166°
2026-04-23 20:26 27.95857 -80.58821 45102 ft 462 kts 167°
2026-04-23 20:27 27.89793 -80.56524 45110 ft 463 kts 167°
2026-04-23 20:27 27.83678 -80.54213 45106 ft 464 kts 167°
2026-04-23 20:28 27.77557 -80.51901 45105 ft 464 kts 167°
2026-04-23 20:28 27.71427 -80.49587 45098 ft 465 kts 167°
2026-04-23 20:29 27.65363 -80.47145 45097 ft 466 kts 166°
2026-04-23 20:29 27.59239 -80.44729 45100 ft 466 kts 167°
2026-04-23 20:30 27.53110 -80.42299 45087 ft 467 kts 166°
2026-04-23 20:30 27.43905 -80.38662 45081 ft 467 kts 167°
2026-04-23 20:31 27.37812 -80.36252 45080 ft 467 kts 167°
2026-04-23 20:31 27.31677 -80.33834 45079 ft 467 kts 167°
2026-04-23 20:32 27.25539 -80.31415 45085 ft 467 kts 167°
2026-04-23 20:32 27.19444 -80.29017 45083 ft 467 kts 167°
2026-04-23 20:33 27.13306 -80.26605 45082 ft 467 kts 167°
2026-04-23 20:33 27.07171 -80.24196 45081 ft 467 kts 167°
2026-04-23 20:34 27.01033 -80.21789 45083 ft 467 kts 167°
2026-04-23 20:34 26.94941 -80.19403 45081 ft 467 kts 167°
2026-04-23 20:35 26.88809 -80.17005 45084 ft 467 kts 167°
2026-04-23 20:35 26.82677 -80.14608 45082 ft 467 kts 167°
2026-04-23 20:36 26.76581 -80.12229 45084 ft 467 kts 167°
2026-04-23 20:36 26.70455 -80.09835 45082 ft 467 kts 166°
2026-04-23 20:37 26.64624 -80.06545 45093 ft 479 kts 153°
2026-04-23 20:37 26.59442 -80.01755 45109 ft 490 kts 139°
2026-04-23 20:38 26.55290 -79.95668 45113 ft 499 kts 124°
2026-04-23 20:38 26.52456 -79.88553 45108 ft 505 kts 109°
2026-04-23 20:39 26.50886 -79.80944 45104 ft 506 kts 107°
2026-04-23 20:39 26.48367 -79.73679 45106 ft 499 kts 122°
2026-04-23 20:40 26.44753 -79.67109 45102 ft 497 kts 126°
2026-04-23 20:40 26.41094 -79.60567 45098 ft 497 kts 126°
2026-04-23 20:41 26.37411 -79.54046 45099 ft 497 kts 127°
2026-04-23 20:41 26.33761 -79.47563 45093 ft 497 kts 127°
2026-04-23 20:42 26.30079 -79.41050 45089 ft 497 kts 127°
2026-04-23 20:42 26.26394 -79.34533 45083 ft 497 kts 127°
2026-04-23 20:43 26.22706 -79.28024 45080 ft 497 kts 127°
2026-04-23 20:43 26.19041 -79.21562 45080 ft 497 kts 127°
2026-04-23 20:44 26.15345 -79.15056 45078 ft 497 kts 127°
2026-04-23 20:44 26.11650 -79.08560 45073 ft 497 kts 127°
2026-04-23 20:45 26.07944 -79.02055 45073 ft 498 kts 127°
2026-04-23 20:45 26.04258 -78.95594 45071 ft 498 kts 127°
2026-04-23 20:46 26.00540 -78.89086 45076 ft 499 kts 127°
2026-04-23 20:46 25.96815 -78.82575 45072 ft 499 kts 127°
2026-04-23 20:47 25.93083 -78.76061 45074 ft 500 kts 127°
2026-04-23 20:47 25.89369 -78.69587 45070 ft 500 kts 128°
2026-04-23 20:48 25.85623 -78.63069 45067 ft 501 kts 128°
2026-04-23 20:48 25.81871 -78.56547 45066 ft 501 kts 128°
2026-04-23 20:49 25.78112 -78.50025 45068 ft 502 kts 128°
2026-04-23 20:49 25.74373 -78.43544 45068 ft 502 kts 128°
2026-04-23 20:50 25.70272 -78.37359 45072 ft 496 kts 135°
2026-04-23 20:50 25.65968 -78.31379 45070 ft 496 kts 135°
2026-04-23 20:51 25.61640 -78.25426 45068 ft 496 kts 135°
2026-04-23 20:51 25.57352 -78.19508 45066 ft 496 kts 135°
2026-04-23 20:52 25.53030 -78.13562 45065 ft 495 kts 135°
2026-04-23 20:52 25.48710 -78.07624 45065 ft 495 kts 135°
2026-04-23 20:53 25.44387 -78.01690 45066 ft 495 kts 135°
2026-04-23 20:53 25.40094 -77.95804 45070 ft 495 kts 136°
2026-04-23 20:54 25.35773 -77.89887 45068 ft 494 kts 136°
2026-04-23 20:54 25.31448 -77.83972 45062 ft 494 kts 136°
2026-04-23 20:55 25.27123 -77.78065 45063 ft 494 kts 136°
2026-04-23 20:55 25.22802 -77.72170 45064 ft 494 kts 136°
2026-04-23 20:56 25.18508 -77.66320 45070 ft 494 kts 136°
2026-04-23 20:56 25.14182 -77.60433 45067 ft 493 kts 136°
2026-04-23 20:57 25.09857 -77.54555 45064 ft 493 kts 136°
2026-04-23 20:57 25.05558 -77.48720 45066 ft 493 kts 136°
2026-04-23 20:58 25.01320 -77.42747 45076 ft 498 kts 132°
2026-04-23 20:58 24.97301 -77.36535 45074 ft 497 kts 133°
2026-04-23 20:59 24.93273 -77.30336 45069 ft 498 kts 133°
2026-04-23 20:59 24.89273 -77.24170 45060 ft 498 kts 133°
2026-04-23 21:00 24.85237 -77.17971 45055 ft 498 kts 133°
2026-04-23 21:00 24.81203 -77.11772 45050 ft 498 kts 133°
2026-04-23 21:01 24.77160 -77.05575 45054 ft 498 kts 133°
2026-04-23 21:01 24.73144 -76.99423 45052 ft 499 kts 133°
2026-04-23 21:02 24.69088 -76.93223 45052 ft 500 kts 133°
2026-04-23 21:02 24.65026 -76.87016 45051 ft 500 kts 133°
2026-04-23 21:03 24.60953 -76.80804 45054 ft 501 kts 133°
2026-04-23 21:03 24.56906 -76.74637 45054 ft 502 kts 133°
2026-04-23 21:04 24.52809 -76.68404 45053 ft 503 kts 133°
2026-04-23 21:04 24.48709 -76.62173 45052 ft 504 kts 134°
2026-04-23 21:05 24.44601 -76.55938 45058 ft 505 kts 133°
2026-04-23 21:05 24.40509 -76.49736 45053 ft 505 kts 134°
2026-04-23 21:06 24.36380 -76.43485 45050 ft 506 kts 133°
2026-04-23 21:06 24.32242 -76.37229 45049 ft 507 kts 133°
2026-04-23 21:07 24.28097 -76.30969 45048 ft 508 kts 134°
2026-04-23 21:07 24.23943 -76.24705 45049 ft 508 kts 133°
2026-04-23 21:08 24.19811 -76.18481 45045 ft 509 kts 134°
2026-04-23 21:08 24.15647 -76.12217 45048 ft 509 kts 134°
2026-04-23 21:09 24.11471 -76.05943 45049 ft 509 kts 133°
2026-04-23 21:09 24.07294 -75.99676 45049 ft 509 kts 134°
2026-04-23 21:10 24.03147 -75.93462 45044 ft 509 kts 134°
2026-04-23 21:10 23.98967 -75.87206 45046 ft 509 kts 134°
2026-04-23 21:11 23.94787 -75.80959 45044 ft 509 kts 134°
2026-04-23 21:11 23.90605 -75.74716 45046 ft 509 kts 134°
2026-04-23 21:12 23.86451 -75.68522 45039 ft 509 kts 134°
2026-04-23 21:12 23.82266 -75.62290 45040 ft 509 kts 134°
2026-04-23 21:13 23.78079 -75.56063 45037 ft 508 kts 134°
2026-04-23 21:13 23.73891 -75.49843 45039 ft 508 kts 134°
2026-04-23 21:14 23.69730 -75.43669 45039 ft 508 kts 134°
2026-04-23 21:14 23.65542 -75.37463 45037 ft 508 kts 134°
2026-04-23 21:15 23.61355 -75.31267 45037 ft 507 kts 134°
2026-04-23 21:15 23.56984 -75.25299 45045 ft 497 kts 142°
2026-04-23 21:16 23.52070 -75.20137 45039 ft 494 kts 144°
2026-04-23 21:16 23.47128 -75.14946 45041 ft 493 kts 144°
2026-04-23 21:17 23.42177 -75.09789 45031 ft 492 kts 144°
2026-04-23 21:17 23.37241 -75.04631 45034 ft 492 kts 144°
2026-04-23 21:18 23.32335 -74.99522 45031 ft 491 kts 144°
2026-04-23 21:18 23.27406 -74.94388 45034 ft 490 kts 144°
2026-04-23 21:19 23.22480 -74.89265 45035 ft 490 kts 144°
2026-04-23 21:19 23.17559 -74.84153 45033 ft 489 kts 144°
2026-04-23 21:20 23.12714 -74.79125 45031 ft 488 kts 144°
2026-04-23 21:20 23.07828 -74.74060 45032 ft 488 kts 144°
2026-04-23 21:21 23.02922 -74.68979 45029 ft 487 kts 144°
2026-04-23 21:21 22.98054 -74.63943 45029 ft 486 kts 144°
2026-04-23 21:22 22.93149 -74.58877 44456 ft 490 kts 144°
2026-04-23 21:22 22.90687 -74.56333 43673 ft 489 kts 144°
2026-04-23 21:22 22.88233 -74.53795 42917 ft 487 kts 145°
2026-04-23 21:23 22.85782 -74.51268 42183 ft 485 kts 145°
2026-04-23 21:23 22.83340 -74.48752 41477 ft 483 kts 146°
2026-04-23 21:23 22.80909 -74.46247 40793 ft 481 kts 146°
2026-04-23 21:23 22.78521 -74.43786 40138 ft 479 kts 146°
2026-04-23 21:24 22.76112 -74.41306 39494 ft 476 kts 147°
2026-04-23 21:24 22.73708 -74.38835 38877 ft 478 kts 147°
2026-04-23 21:24 22.71287 -74.36352 38180 ft 482 kts 147°
2026-04-23 21:24 22.68848 -74.33845 37469 ft 485 kts 146°
2026-04-23 21:25 22.66390 -74.31316 36783 ft 489 kts 146°
2026-04-23 21:25 22.63917 -74.28776 36116 ft 491 kts 146°
2026-04-23 21:25 22.63483 -74.28330 36000 ft 492 kts 146°
2026-04-23 21:26 22.61055 -74.25840 35365 ft 495 kts 146°
2026-04-23 21:26 22.58556 -74.23277 34758 ft 495 kts 145°
2026-04-23 21:26 22.56062 -74.20715 34183 ft 493 kts 145°
2026-04-23 21:26 22.53573 -74.18165 33549 ft 491 kts 145°
2026-04-23 21:27 22.51087 -74.15625 32872 ft 493 kts 144°
2026-04-23 21:27 22.48595 -74.13075 32205 ft 493 kts 144°
2026-04-23 21:27 22.46104 -74.10523 31543 ft 493 kts 144°
2026-04-23 21:27 22.43615 -74.07977 30900 ft 492 kts 144°
2026-04-23 21:28 22.41133 -74.05442 30277 ft 491 kts 143°
2026-04-23 21:28 22.38688 -74.02946 29592 ft 489 kts 143°
2026-04-23 21:28 22.36218 -74.00424 28875 ft 487 kts 143°
2026-04-23 21:28 22.33759 -73.97915 28185 ft 486 kts 142°
2026-04-23 21:29 22.31311 -73.95419 27494 ft 484 kts 142°
2026-04-23 21:29 22.28869 -73.92929 26826 ft 482 kts 142°
2026-04-23 21:29 22.26435 -73.90450 26177 ft 480 kts 142°
2026-04-23 21:29 22.24053 -73.88025 25551 ft 478 kts 142°
2026-04-23 21:30 22.21606 -73.85533 24965 ft 474 kts 141°
2026-04-23 21:30 22.19254 -73.83140 24406 ft 469 kts 141°
2026-04-23 21:30 22.16889 -73.80734 23852 ft 465 kts 141°
2026-04-23 21:30 22.14542 -73.78352 23244 ft 461 kts 141°
2026-04-23 21:31 22.12213 -73.75986 22597 ft 458 kts 141°
2026-04-23 21:31 22.09903 -73.73641 21960 ft 455 kts 140°
2026-04-23 21:31 22.07605 -73.71308 21334 ft 452 kts 140°
2026-04-23 21:31 22.05322 -73.68993 20723 ft 449 kts 140°
2026-04-23 21:32 22.03055 -73.66695 20123 ft 446 kts 140°
2026-04-23 21:32 22.00841 -73.64450 19548 ft 440 kts 140°
2026-04-23 21:32 21.98619 -73.62200 18974 ft 437 kts 140°
2026-04-23 21:32 21.96424 -73.59977 18405 ft 430 kts 140°
2026-04-23 21:33 21.94254 -73.57783 17780 ft 425 kts 139°
2026-04-23 21:33 21.92111 -73.55614 17142 ft 420 kts 139°
2026-04-23 21:33 21.89991 -73.53471 16515 ft 416 kts 139°
2026-04-23 21:33 21.87912 -73.51327 16016 ft 413 kts 135°
2026-04-23 21:34 21.86158 -73.48886 15524 ft 412 kts 124°
2026-04-23 21:34 21.84835 -73.46165 15060 ft 410 kts 113°
2026-04-23 21:34 21.83988 -73.43285 14603 ft 408 kts 102°
2026-04-23 21:34 21.83618 -73.40276 14145 ft 404 kts 92°
2026-04-23 21:35 21.83493 -73.37286 13660 ft 393 kts 92°
2026-04-23 21:35 21.83354 -73.34418 13157 ft 375 kts 93°
2026-04-23 21:35 21.83224 -73.31681 12648 ft 358 kts 92°
2026-04-23 21:35 21.83106 -73.29055 12149 ft 347 kts 92°
2026-04-23 21:36 21.82870 -73.23958 11228 ft 340 kts 93°
2026-04-23 21:36 21.82750 -73.21427 10776 ft 337 kts 93°
2026-04-23 21:36 21.82633 -73.18935 10327 ft 326 kts 93°
2026-04-23 21:37 21.82524 -73.16572 9883 ft 308 kts 93°
2026-04-23 21:37 21.82415 -73.14289 9395 ft 305 kts 93°
2026-04-23 21:37 21.82308 -73.12020 8935 ft 303 kts 94°
2026-04-23 21:37 21.82200 -73.09765 8486 ft 301 kts 93°
2026-04-23 21:38 21.82092 -73.07523 8043 ft 299 kts 94°
2026-04-23 21:38 21.81991 -73.05380 7622 ft 298 kts 93°
2026-04-23 21:38 21.81886 -73.03179 7244 ft 291 kts 94°
2026-04-23 21:38 21.81782 -73.01026 7031 ft 285 kts 94°
2026-04-23 21:39 21.81615 -72.98915 7027 ft 281 kts 95°
2026-04-23 21:39 21.81481 -72.96844 7024 ft 283 kts 94°
2026-04-23 21:39 21.81363 -72.94713 7025 ft 288 kts 94°
2026-04-23 21:39 21.81236 -72.92553 7025 ft 291 kts 94°
2026-04-23 21:40 21.81098 -72.90369 7026 ft 293 kts 94°
2026-04-23 21:40 21.80963 -72.88192 7026 ft 290 kts 94°
2026-04-23 21:40 21.80830 -72.86032 7027 ft 289 kts 94°
2026-04-23 21:40 21.80696 -72.83871 6931 ft 292 kts 94°
2026-04-23 21:41 21.80561 -72.81681 6699 ft 291 kts 94°
2026-04-23 21:41 21.80431 -72.79580 6467 ft 278 kts 94°
2026-04-23 21:41 21.80305 -72.77550 6215 ft 266 kts 94°
2026-04-23 21:41 21.80182 -72.75593 5966 ft 259 kts 94°
2026-04-23 21:42 21.80063 -72.73674 5712 ft 255 kts 94°
2026-04-23 21:42 21.79943 -72.71784 5469 ft 252 kts 94°
2026-04-23 21:42 21.79827 -72.69916 5217 ft 248 kts 94°
2026-04-23 21:42 21.79710 -72.68075 4975 ft 246 kts 94°
2026-04-23 21:43 21.79597 -72.66251 4729 ft 243 kts 93°
2026-04-23 21:43 21.79482 -72.64447 4472 ft 240 kts 93°
2026-04-23 21:43 21.79371 -72.62688 4227 ft 237 kts 93°
2026-04-23 21:43 21.79260 -72.60925 3978 ft 235 kts 93°
2026-04-23 21:44 21.79148 -72.59181 3754 ft 232 kts 92°
2026-04-23 21:44 21.79040 -72.57469 3554 ft 227 kts 92°
2026-04-23 21:44 21.78934 -72.55794 3353 ft 222 kts 92°
2026-04-23 21:44 21.78829 -72.54158 3153 ft 217 kts 93°
2026-04-23 21:45 21.78726 -72.52546 2953 ft 215 kts 92°
2026-04-23 21:45 21.78626 -72.50953 2749 ft 212 kts 92°
2026-04-23 21:45 21.78525 -72.49399 2555 ft 209 kts 92°
2026-04-23 21:45 21.78426 -72.47855 2357 ft 204 kts 91°
2026-04-23 21:46 21.78330 -72.46355 2171 ft 198 kts 92°
2026-04-23 21:46 21.78248 -72.44904 2000 ft 192 kts 90°
2026-04-23 21:46 21.78187 -72.43482 1829 ft 187 kts 90°
2026-04-23 21:46 21.78122 -72.42104 1711 ft 180 kts 91°
2026-04-23 21:47 21.78056 -72.40790 1710 ft 168 kts 91°
2026-04-23 21:47 21.77999 -72.39634 1700 ft 144 kts 90°
2026-04-23 21:47 21.77949 -72.38583 1696 ft 143 kts 90°
2026-04-23 21:47 21.77898 -72.37538 1657 ft 146 kts 89°
2026-04-23 21:48 21.77845 -72.36409 1474 ft 150 kts 90°
2026-04-23 21:48 21.77788 -72.35285 1286 ft 150 kts 90°
2026-04-23 21:48 21.77737 -72.34324 1108 ft 119 kts 87°
2026-04-23 21:48 21.77693 -72.33436 953 ft 119 kts 87°
2026-04-23 21:49 21.77654 -72.32529 828 ft 121 kts 85°
2026-04-23 21:49 21.77627 -72.31658 672 ft 119 kts 88°
2026-04-23 21:49 21.77577 -72.30749 552 ft 123 kts 90°
2026-04-23 21:49 21.77489 -72.29888 416 ft 111 kts 87°
2026-04-23 21:50 21.77476 -72.29065 256 ft 109 kts 87°
2026-04-23 21:50 21.77446 -72.28249 80 ft 107 kts 92°
2026-04-23 21:50 21.77411 -72.27543 27 ft 76 kts 93°
2026-04-23 21:50 21.77390 -72.27119 23 ft 43 kts 93°
2026-04-23 21:51 21.77373 -72.26809 21 ft 43 kts 93°
2026-04-23 21:51 21.77356 -72.26474 19 ft 46 kts 93°
2026-04-23 21:51 21.77340 -72.26131 15 ft 44 kts 93°
2026-04-23 21:51 21.77327 -72.25869 14 ft 28 kts 93°
2026-04-23 21:52 21.77348 -72.25735 12 ft 13 kts 28°
2026-04-23 21:52 21.77418 -72.25715 13 ft 0 kts 13°
2026-04-23 21:53 21.77453 -72.25706 13 ft 11 kts 13°
2026-04-23 21:53 21.77496 -72.25738 13 ft 5 kts 327°
2026-04-23 21:53 21.77518 -72.25738 13 ft 0 kts